Location: Newark
(21.1200°N, 73.4000°E)
Time: 04:39:09
(UTC+00:00)

Courier 1B Rocket - Pass Details

Date: 18 January 2020
Orbit: 920 x 1202 km, 28.2° (Epoch: 16 February)

Event Time Altitude Azimuth Distance (km) Brightness Sun altitude
Rises 05:00:36 0° 197° (SSW) 3,939 8.5 36.6°
Reaches altitude 10° 05:06:29 10° 160° (SSE) 2,896 8.6 37.5°
Maximum altitude 05:07:51 11° 149° (SSE) 2,832 8.7 37.7°
Drops below altitude 10° 05:09:12 10° 138° (SE) 2,855 8.7 37.9°
Sets 05:14:45 0° 101° (E) 3,722 8.6 38.7°
